Torna al catalogo

ONEWEB-0440

AttivoComunicazioniPO
NORAD 50503·PAYLOAD·🇬🇧 United Kingdom

Lanciato Dec 27, 2021 da Baikonur Cosmodrome

Loading…

Prossimi Passaggi (prossime 24 ore)

TLE

AggiornatoSource: CelesTrak SupGP

Epoca: Sep 14, 2026, 23:26 UTC

1 50503C 21132AL  26257.97653196  .00001566  00000+0  39773-2 0  2575
2 50503  87.9161 317.6176 0002218  93.7845 355.2310 13.18683442    17

Traccia ONEWEB-0440 in tempo reale con AllMySat

Download on the App Store